Change the Weather History Date:

Wednesday, February 27, 2013

  Actual Average Record
Temperature  
Mean Temperature 37 °F 32 °F  
Max Temperature 40 °F 42 °F 69 °F (1997)
Min Temperature 33 °F 24 °F -5 °F (1963)
Degree Days  
Heating Degree Days 28 33  
Month to date heating degree days 971 956  
Since 1 July heating degree days 4139 4435  
Cooling Degree Days 0 0  
Month to date cooling degree days 0 0  
Year to date cooling degree days 0 0  
Moisture  
Dew Point 34 °F    
Average Humidity 93    
Maximum Humidity 100    
Minimum Humidity 85    
Precipitation  
Precipitation 0.61 in 0.08 in 1.20 in (1958)
Month to date precipitation 1.81 2.25  
Year to date precipitation 4.45 4.95  
Snow  
Snow 0.70 in 0.30 in 6.00 in (1934)
Month to date snowfall 4.1 8.5  
Since 1 July snowfall 27.1 27.7  
Snow Depth T in    
Sea Level Pressure  
Sea Level Pressure 29.63 in    
Wind  
Wind Speed 3 mph (West)    
Max Wind Speed 16 mph    
Max Gust Speed 20 mph    
Visibility 3 miles    
Events Fog , Rain , Snow    
T = Trace of Precipitation, MM = Missing Value Source: NWS Daily Summary

Daily Weather History Graph

Daily Weather History Graph

Search for Another Location

Airport or City:

Trip Planner

Search our weather history database for the weather conditions in past years. The results will help you decide how hot, cold, wet, or windy it might be!

Date:

Astronomy

Feb. 27, 2013 Rise Set
Actual Time 6:44 AM EST 5:56 PM EST
Civil Twilight 6:17 AM EST 6:24 PM EST
Nautical Twilight 5:45 AM EST 6:56 PM EST
Astronomical Twilight 5:13 AM EST 7:28 PM EST
Moon 8:17 PM EST (2/27) 7:17 AM EST (2/27)
Length of Visible Light 12h 07m
Length of Day
11h 11m
Waning Gibbous, 96% of the Moon is Illuminated
Feb 27
Waning Gibbous
Mar 4
Last Quarter
Mar 11
New
Mar 19
First Quarter
Mar 27
Full

Hourly Weather History & Observations

Time (EST) Temp. Windchill Dew Point Humidity Pressure Visibility Wind Dir Wind Speed Gust Speed Precip Events Conditions
12:04 AM 33.8 °F - 33.8 °F 100% 29.78 in 2.5 mi Calm Calm - 0.02 in Snow Snow
12:37 AM 33.8 °F - 32.0 °F 93% 29.76 in 1.5 mi Calm Calm - 0.08 in Snow Snow
12:54 AM 33.1 °F - 32.0 °F 96% 29.76 in 1.2 mi Calm Calm - 0.11 in Snow Snow
1:21 AM 33.8 °F - 32.0 °F 93% 29.73 in 0.5 mi Calm Calm - 0.02 in Fog , Snow Snow
1:41 AM 33.8 °F - 32.0 °F 93% 29.72 in 1.2 mi Calm Calm - 0.03 in Snow Snow
1:54 AM 33.1 °F - 32.0 °F 96% 29.71 in 2.0 mi Calm Calm - 0.04 in Snow Snow
2:01 AM 33.8 °F - 32.0 °F 93% 29.69 in 1.8 mi Calm Calm - 0.00 in Snow Snow
2:06 AM 33.8 °F - 33.8 °F 100% 29.69 in 3.0 mi Calm Calm - 0.00 in Snow Snow
2:14 AM 33.8 °F - 33.8 °F 100% 29.69 in 2.0 mi Calm Calm - 0.01 in Snow Snow
2:21 AM 33.8 °F - 32.0 °F 93% 29.69 in 1.8 mi Calm Calm - 0.01 in Snow Snow
2:27 AM 33.8 °F - 33.8 °F 100% 29.68 in 3.0 mi Calm Calm - 0.02 in Snow Snow
2:54 AM 33.1 °F 30.0 °F 32.0 °F 96% 29.68 in 2.0 mi West 3.5 mph - 0.03 in Snow Snow
3:07 AM 33.8 °F 30.8 °F 32.0 °F 93% 29.65 in 1.5 mi West 3.5 mph - 0.01 in Snow Snow
3:28 AM 33.8 °F - 33.8 °F 100% 29.64 in 2.5 mi Calm Calm - 0.02 in Snow Snow
3:41 AM 33.8 °F - 33.8 °F 100% 29.62 in 1.5 mi Calm Calm - 0.04 in Snow Snow
3:54 AM 33.1 °F - 33.1 °F 100% 29.63 in 1.5 mi Calm Calm - 0.05 in Snow Snow
4:38 AM 33.8 °F - 33.8 °F 100% 29.60 in 3.0 mi Calm Calm - 0.03 in Snow Snow
4:45 AM 33.8 °F - 33.8 °F 100% 29.60 in 1.8 mi Calm Calm - 0.03 in Snow Snow
4:54 AM 33.1 °F - 33.1 °F 100% 29.61 in 1.8 mi Calm Calm - 0.03 in Snow Snow
5:14 AM 33.8 °F 29.6 °F 33.8 °F 100% 29.60 in 3.0 mi West 4.6 mph - 0.01 in Snow Snow
5:54 AM 33.1 °F 28.7 °F 33.1 °F 100% 29.60 in 3.0 mi West 4.6 mph - 0.01 in Snow Snow
6:11 AM 33.8 °F - 33.8 °F 100% 29.58 in 2.5 mi Calm Calm - 0.01 in Rain Rain
6:35 AM 33.8 °F - 33.8 °F 100% 29.57 in 1.8 mi Calm Calm - 0.04 in Rain Light Rain
6:38 AM 33.8 °F 30.8 °F 33.8 °F 100% 29.57 in 2.0 mi WSW 3.5 mph - 0.04 in Rain Light Rain
6:54 AM 34.0 °F 31.0 °F 34.0 °F 100% 29.58 in 4.0 mi West 3.5 mph - 0.05 in Rain Light Rain
7:03 AM 33.8 °F - 33.8 °F 100% 29.56 in 1.8 mi Calm Calm - 0.00 in   Overcast
7:24 AM 33.8 °F - 33.8 °F 100% 29.57 in 0.5 mi Calm Calm - 0.00 in Fog Fog
7:45 AM 33.8 °F 30.8 °F 33.8 °F 100% 29.57 in 1.5 mi WNW 3.5 mph - 0.00 in Rain Light Rain
7:54 AM 34.0 °F 31.0 °F 34.0 °F 100% 29.58 in 2.0 mi West 3.5 mph - 0.00 in Rain Light Rain
8:08 AM 35.6 °F 30.7 °F 33.8 °F 93% 29.57 in 3.0 mi West 5.8 mph - 0.00 in   Overcast
8:16 AM 35.6 °F 30.7 °F 33.8 °F 93% 29.58 in 2.5 mi West 5.8 mph - 0.00 in   Overcast
8:27 AM 35.6 °F 28.6 °F 33.8 °F 93% 29.57 in 3.0 mi West 9.2 mph - 0.00 in   Overcast
8:54 AM 35.1 °F 26.9 °F 34.0 °F 96% 29.59 in 5.0 mi West 11.5 mph - 0.00 in Rain Light Rain
9:28 AM 33.8 °F 25.3 °F 33.8 °F 100% 29.59 in 3.0 mi West 11.5 mph - 0.06 in Rain Rain
9:54 AM 33.8 °F 26.4 °F 33.8 °F 100% 29.59 in 3.0 mi WNW 9.2 mph - N/A Rain Rain
10:01 AM 33.8 °F 26.4 °F 33.8 °F 100% 29.60 in 2.5 mi West 9.2 mph - 0.02 in Rain Rain
10:10 AM 33.8 °F 27.0 °F 33.8 °F 100% 29.60 in 4.0 mi WNW 8.1 mph - 0.03 in Rain Light Rain
10:38 AM 33.8 °F - 33.8 °F 100% 29.60 in 5.0 mi Calm Calm - 0.07 in Rain Light Rain
10:54 AM 34.0 °F 29.8 °F 33.1 °F 96% 29.61 in 4.0 mi West 4.6 mph - 0.07 in Rain Light Rain
10:57 AM 33.8 °F 28.6 °F 33.8 °F 100% 29.60 in 4.0 mi West 5.8 mph - 0.01 in Rain , Snow Light Snow
11:20 AM 33.8 °F 28.6 °F 33.8 °F 100% 29.60 in 5.0 mi West 5.8 mph - 0.03 in Rain Light Rain
11:54 AM 34.0 °F 28.0 °F 33.1 °F 96% 29.62 in 5.0 mi West 6.9 mph - 0.04 in Rain Light Rain
12:16 PM 33.8 °F 28.6 °F 32.0 °F 93% 29.60 in 1.5 mi West 5.8 mph - 0.03 in Snow Light Snow
12:54 PM 34.0 °F 29.8 °F 33.1 °F 96% 29.60 in 2.0 mi West 4.6 mph - 0.07 in Snow Light Snow
1:02 PM 35.6 °F 31.7 °F 33.8 °F 93% 29.58 in 3.0 mi West 4.6 mph - 0.00 in Snow Light Snow
1:12 PM 35.6 °F 30.7 °F 33.8 °F 93% 29.58 in 4.0 mi West 5.8 mph - 0.01 in Snow Light Snow
1:19 PM 35.6 °F 29.2 °F 33.8 °F 93% 29.58 in 5.0 mi West 8.1 mph - 0.01 in Rain Light Rain
1:54 PM 37.0 °F 31.6 °F 35.1 °F 93% 29.60 in 10.0 mi West 6.9 mph - 0.01 in Rain Light Rain
2:54 PM 37.9 °F 35.5 °F 35.1 °F 89% 29.60 in 10.0 mi WSW 3.5 mph - 0.00 in   Overcast
3:54 PM 39.0 °F 34.0 °F 36.0 °F 89% 29.61 in 10.0 mi West 6.9 mph - N/A   Overcast
4:54 PM 37.9 °F - 36.0 °F 93% 29.62 in 10.0 mi Calm Calm - N/A   Overcast
5:54 PM 37.9 °F - 36.0 °F 93% 29.64 in 10.0 mi Calm Calm - N/A   Overcast
6:54 PM 36.0 °F 32.1 °F 35.1 °F 97% 29.65 in 4.0 mi ESE 4.6 mph - N/A   Overcast
7:12 PM 35.6 °F 31.7 °F 35.6 °F 100% 29.63 in 4.0 mi SE 4.6 mph - N/A   Overcast
7:54 PM 36.0 °F - 35.1 °F 97% 29.64 in 2.5 mi Calm Calm - N/A   Overcast
8:29 PM 35.6 °F - 35.6 °F 100% 29.63 in 3.0 mi Calm Calm - N/A   Overcast
8:54 PM 35.6 °F - 35.6 °F 100% 29.63 in 3.0 mi Calm Calm - N/A   Overcast
9:27 PM 35.6 °F - 35.6 °F 100% 29.63 in 3.0 mi Calm Calm - N/A   Overcast
9:37 PM 35.6 °F 30.7 °F 33.8 °F 93% 29.63 in 2.0 mi SE 5.8 mph - N/A   Overcast
9:54 PM 36.0 °F - 35.1 °F 97% 29.64 in 3.0 mi Calm Calm - N/A   Overcast
10:13 PM 35.6 °F - 35.6 °F 100% 29.63 in 2.5 mi Calm Calm - N/A   Overcast
10:31 PM 35.6 °F 32.8 °F 35.6 °F 100% 29.62 in 4.0 mi NNE 3.5 mph - N/A   Overcast
10:47 PM 35.6 °F 32.8 °F 35.6 °F 100% 29.62 in 1.8 mi SSE 3.5 mph - N/A   Overcast
10:54 PM 35.1 °F - 35.1 °F 100% 29.64 in 1.0 mi Calm Calm - N/A   Overcast
11:01 PM 35.6 °F - 33.8 °F 93% 29.62 in 2.0 mi Calm Calm - N/A   Overcast
11:36 PM 35.6 °F - 35.6 °F 100% 29.61 in 3.0 mi Calm Calm - 0.00 in Rain Light Rain
11:46 PM 35.6 °F - 35.6 °F 100% 29.61 in 1.8 mi Calm Calm - 0.00 in   Overcast
11:54 PM 35.1 °F - 35.1 °F 100% 29.62 in 1.2 mi Calm Calm - 0.00 in   Overcast